Home   Weather   Youngstown   Past weeks

Flag for USA Past Weather in Youngstown, Ohio, USA — Yesterday and Last 2 Weeks

44 °F


Feels Like: 38 °F
Forecast: 45 / 59 °F
Wind: 13 mph from East

Location: Youngstown-Warren Regional Airport

Current Time: Oct 26, 2016 at 11:21:16 PM

Latest Report: Oct 26, 2016 at 10:51 PM

Visibility: 10 mi

Pressure: 30.21 "Hg

Humidity: 60%

Dew Point: 31 °F

Location of YoungstownLocation

Past Weather in Youngstown — Graph


Youngstown Temperature Yesterday

Maximum temperature yesterday: 52 °F (at 2:51 PM)
Minimum temperature yesterday: 40 °F (at 7:51 AM)
Average temperature yesterday: 45 °F

High & Low Weather Summary for the Past Weeks

High78 °F (Oct 17, 2:51 PM)100% (Oct 20, 5:51 AM)30.47 "Hg (Oct 20, 5:51 AM)
Low30 °F (Oct 26, 6:51 AM)41% (Oct 12, 2:51 PM)29.75 "Hg (Oct 18, 1:51 PM)
Average55 °F76%30.08 "Hg
* Reported Oct 11 9:51 PM — Oct 26 9:51 PM, Youngstown, Weather by CustomWeather, © 2016

Note: Actual official high and low records may vary slightly from our data, if they occured in-between our weather recording intervals... More about our weather records


Youngstown Weather History for the Previous 24 Hours

Scroll right to see more
Time TempWeatherWind HumidityBarometerVisibility
9:51 PM
Wed, Oct 26
43 °FOvercast.10 mph62%30.24 "Hg10 mi
8:51 PM43 °FOvercast.12 mph62%30.26 "Hg10 mi
7:51 PM42 °FMostly cloudy.10 mph68%30.28 "Hg10 mi
6:51 PM42 °FMostly cloudy.8 mph68%30.31 "Hg10 mi
5:51 PM42 °FMostly cloudy.9 mph73%30.33 "Hg10 mi
4:51 PM43 °FLight rain. More clouds than sun.5 mph68%30.35 "Hg10 mi
3:51 PM43 °FMostly cloudy.8 mph68%30.33 "Hg10 mi
2:51 PM43 °FMostly cloudy.8 mph68%30.37 "Hg10 mi
1:51 PM43 °FMostly cloudy.5 mph68%30.42 "Hg10 mi
12:51 PM43 °FMostly cloudy.7 mph71%30.44 "Hg10 mi
11:51 AM42 °FCloudy.6 mph73%30.46 "Hg10 mi
10:51 AM40 °FOvercast.7 mph80%30.47 "Hg10 mi
9:51 AM37 °FOvercast.8 mph89%30.46 "Hg10 mi
8:51 AM34 °FOvercast.6 mph88%30.47 "Hg10 mi
7:51 AM30 °FMore clouds than sun.5 mph92%30.47 "Hg10 mi
6:51 AM30 °FPassing clouds.No wind92%30.45 "Hg10 mi
5:51 AM32 °FPassing clouds.No wind88%30.45 "Hg10 mi
4:51 AM32 °FPassing clouds.No wind92%30.44 "Hg9 mi
3:51 AM33 °FPassing clouds.5 mph92%30.43 "Hg10 mi
2:51 AM33 °FPassing clouds.5 mph96%30.43 "Hg10 mi
1:51 AM34 °FPassing clouds.3 mph92%30.43 "Hg10 mi
12:51 AM37 °FPassing clouds.3 mph82%30.43 "Hg10 mi
11:51 PM
Tue, Oct 25
40 °FPassing clouds.7 mph73%30.44 "Hg10 mi
Weather by CustomWeather, © 2016

See weather overviewHow to use our weather pages